,,,PA_Meas_PMT16A,,PR_Meas_QMR101_102,,RH_Meas_QMH101,,SR_Meas_QMS101,,TA_Meas_QMH101,,GenWind,,GenWind,
date,time,status,PA,status,PR,status,RH,status,SR,status,TA,status,DirAvg,status,SpdAvg,
2010-01-28, 00:00:04,VALID,1004.99,VALID,0,VALID,87.8084,VALID,0,VALID,24.5582,VALID,6,VALID,0.291406,
2010-01-28, 00:01:04,VALID,1004.97,VALID,0,VALID,87.7626,VALID,0,VALID,24.5796,VALID,4,VALID,0.440234,
2010-01-28, 00:02:04,VALID,1004.95,VALID,0,VALID,87.6635,VALID,0,VALID,24.599,VALID,354,VALID,0.669922,
2010-01-28, 00:03:04,VALID,1004.92,VALID,0,VALID,87.5261,VALID,0,VALID,24.6166,VALID,354,VALID,0.717188,
2010-01-28, 00:04:04,VALID,1004.91,VALID,0,VALID,87.3049,VALID,0,VALID,24.6574,VALID,348,VALID,0.575391,
2010-01-28, 00:05:04,VALID,1004.93,VALID,0,VALID,87.1905,VALID,0,VALID,24.675,VALID,320,VALID,0.465625,
2010-01-28, 00:06:04,VALID,1004.91,VALID,0,VALID,87.1142,VALID,0,VALID,24.7159,VALID,358,VALID,0.453516,
2010-01-28, 00:07:04,VALID,1004.88,VALID,0,VALID,87.015,VALID,0,VALID,24.6945,VALID,349,VALID,0.382031,
2010-01-28, 00:08:04,VALID,1004.84,VALID,0,VALID,87.015,VALID,0,VALID,24.7353,VALID,347,VALID,0.0148437,
2010-01-28, 00:09:04,VALID,1004.79,VALID,0,VALID,86.9616,VALID,0,VALID,24.714,VALID,353,VALID,0.456641,
2010-01-28, 00:10:04,VALID,1004.76,VALID,0,VALID,86.8853,VALID,0,VALID,24.7567,VALID,353,VALID,0.621875,
2010-01-28, 00:11:04,VALID,1004.73,VALID,0,VALID,86.809,VALID,0,VALID,24.7335,VALID,354,VALID,0.652734,
2010-01-28, 00:12:04,VALID,1004.72,VALID,0,VALID,86.6412,VALID,0,VALID,24.7743,VALID,339,VALID,0.285937,
2010-01-28, 00:13:04,VALID,1004.62,VALID,0,VALID,86.6336,VALID,0,VALID,24.7529,VALID,3,VALID,0.601563,
2010-01-28, 00:14:04,VALID,1004.62,VALID,0,VALID,86.6107,VALID,0,VALID,24.7548,VALID,2,VALID,0.395703,
2010-01-28, 00:15:04,VALID,1004.6,VALID,0,VALID,86.5878,VALID,0,VALID,24.7548,VALID,342,VALID,0.548047,
2010-01-28, 00:16:04,VALID,1004.58,VALID,0,VALID,86.5954,VALID,0,VALID,24.714,VALID,339,VALID,0.44375,
2010-01-28, 00:17:04,VALID,1004.55,VALID,0,VALID,86.6946,VALID,0,VALID,24.6945,VALID,329,VALID,0.90625,
2010-01-28, 00:18:04,VALID,1004.56,VALID,0,VALID,86.6336,VALID,0,VALID,24.7159,VALID,349,VALID,0.609375,
2010-01-28, 00:19:04,VALID,1004.52,VALID,0,VALID,86.6259,VALID,0,VALID,24.714,VALID,269,VALID,0.628906,
2010-01-28, 00:20:04,VALID,1004.53,VALID,0,VALID,86.6412,VALID,0,VALID,24.7353,VALID,341,VALID,0.408594,
2010-01-28, 00:21:04,VALID,1004.52,VALID,0,VALID,86.6488,VALID,0,VALID,24.714,VALID,351,VALID,1.30117,
2010-01-28, 00:22:04,VALID,1004.45,VALID,0,VALID,86.4428,VALID,0,VALID,24.7529,VALID,326,VALID,1.27969,
2010-01-28, 00:23:04,VALID,1004.48,VALID,0,VALID,86.1911,VALID,0,VALID,24.8308,VALID,354,VALID,0.818359,
2010-01-28, 00:24:04,VALID,1004.43,VALID,0,VALID,85.9699,VALID,0,VALID,24.8716,VALID,354,VALID,1.03359,
2010-01-28, 00:25:04,VALID,1004.43,VALID,0,VALID,85.8096,VALID,0,VALID,24.8892,VALID,345,VALID,0.612109,
2010-01-28, 00:26:04,VALID,1004.4,VALID,0,VALID,85.6342,VALID,0,VALID,24.9495,VALID,343,VALID,0.666406,
2010-01-28, 00:27:04,VALID,1004.36,VALID,0,VALID,85.6647,VALID,0,VALID,24.9282,VALID,9,VALID,0.582812,
2010-01-28, 00:28:04,VALID,1004.34,VALID,0,VALID,85.6342,VALID,0,VALID,24.9282,VALID,327,VALID,0.603516,
2010-01-28, 00:29:04,VALID,1004.31,VALID,0,VALID,85.5503,VALID,0,VALID,24.969,VALID,343,VALID,0.769531,
2010-01-28, 00:30:04,VALID,1004.3,VALID,0,VALID,85.4282,VALID,0,VALID,24.969,VALID,350,VALID,0.729297,
2010-01-28, 00:31:04,VALID,1004.29,VALID,0,VALID,85.2985,VALID,0,VALID,24.9885,VALID,350,VALID,0.755859,
2010-01-28, 00:32:04,VALID,1004.28,VALID,0,VALID,85.1383,VALID,0,VALID,24.9866,VALID,1,VALID,0.982813,
2010-01-28, 00:33:04,VALID,1004.23,VALID,0,VALID,85.0391,VALID,0,VALID,25.0274,VALID,354,VALID,1.07773,
2010-01-28, 00:34:04,VALID,1004.2,VALID,0,VALID,85.0696,VALID,0,VALID,25.0274,VALID,352,VALID,0.467578,
2010-01-28, 00:35:04,VALID,1004.2,VALID,0,VALID,84.9552,VALID,0,VALID,25.0274,VALID,346,VALID,0.914844,
2010-01-28, 00:36:04,VALID,1004.17,VALID,0,VALID,85.001,VALID,0,VALID,25.006,VALID,339,VALID,0.724609,
2010-01-28, 00:37:04,VALID,1004.16,VALID,0,VALID,85.062,VALID,0,VALID,24.9866,VALID,354,VALID,0.809375,
2010-01-28, 00:38:04,VALID,1004.14,VALID,0,VALID,85.1078,VALID,0,VALID,25.0079,VALID,350,VALID,0.923828,
2010-01-28, 00:39:04,VALID,1004.13,VALID,0,VALID,85.0849,VALID,0,VALID,24.969,VALID,347,VALID,0.642969,
2010-01-28, 00:40:04,VALID,1004.09,VALID,0,VALID,85.1917,VALID,0,VALID,24.9476,VALID,341,VALID,0.720703,
2010-01-28, 00:41:04,VALID,1004.11,VALID,0,VALID,85.2527,VALID,0,VALID,24.93,VALID,347,VALID,0.822266,
2010-01-28, 00:42:04,VALID,1004.09,VALID,0,VALID,85.3748,VALID,0,VALID,24.93,VALID,356,VALID,0.796484,
2010-01-28, 00:43:04,VALID,1004.08,VALID,0,VALID,85.474,VALID,0,VALID,24.8697,VALID,352,VALID,1.03555,
2010-01-28, 00:44:04,VALID,1004.12,VALID,0,VALID,85.5579,VALID,0,VALID,24.8697,VALID,338,VALID,0.658594,
2010-01-28, 00:45:04,VALID,1004.06,VALID,0,VALID,85.6494,VALID,0,VALID,24.8308,VALID,5,VALID,0.476953,
2010-01-28, 00:46:04,VALID,1004.08,VALID,0,VALID,85.7334,VALID,0,VALID,24.8522,VALID,1,VALID,0.630469,
2010-01-28, 00:47:04,VALID,1004.08,VALID,0,VALID,85.7868,VALID,0,VALID,24.8308,VALID,352,VALID,0.396484,
2010-01-28, 00:48:04,VALID,1004.08,VALID,0,VALID,85.8173,VALID,0,VALID,24.8327,VALID,352,VALID,0.596484,
2010-01-28, 00:49:04,VALID,1004.07,VALID,0,VALID,85.7791,VALID,0,VALID,24.8113,VALID,335,VALID,0.923437,
2010-01-28, 00:50:04,VALID,1004.04,VALID,0,VALID,85.8402,VALID,0,VALID,24.8327,VALID,350,VALID,0.519141,
2010-01-28, 00:51:04,VALID,1004.06,VALID,0,VALID,85.8859,VALID,0,VALID,24.7919,VALID,349,VALID,0.304688,
2010-01-28, 00:52:04,VALID,1004.02,VALID,0,VALID,85.947,VALID,0,VALID,24.7937,VALID,343,VALID,0.804688,
2010-01-28, 00:53:04,VALID,1003.99,VALID,0,VALID,86.0385,VALID,0,VALID,24.7529,VALID,340,VALID,0.521484,
2010-01-28, 00:54:04,VALID,1003.98,VALID,0,VALID,86.0919,VALID,0,VALID,24.7529,VALID,360,VALID,0.367969,
2010-01-28, 00:55:04,VALID,1003.96,VALID,0,VALID,86.1224,VALID,0,VALID,24.7353,VALID,360,VALID,0.505469,
2010-01-28, 00:56:04,VALID,1003.98,VALID,0,VALID,86.1682,VALID,0,VALID,24.714,VALID,360,VALID,0.23125,
2010-01-28, 00:57:04,VALID,1003.97,VALID,0,VALID,86.275,VALID,0,VALID,24.7159,VALID,348,VALID,0.905078,
2010-01-28, 00:58:04,VALID,1003.98,VALID,0,VALID,86.3055,VALID,0,VALID,24.6964,VALID,343,VALID,0.711719,
2010-01-28, 00:59:04,VALID,1004.01,VALID,0,VALID,86.4428,VALID,0,VALID,24.6945,VALID,15,VALID,0.701563,
2010-01-28, 01:00:04,VALID,1003.99,VALID,0,VALID,86.4428,VALID,0,VALID,24.7353,VALID,324,VALID,0.330078,
2010-01-28, 01:01:04,VALID,1003.96,VALID,0,VALID,86.5115,VALID,0.100563,VALID,24.714,VALID,292,VALID,0.325,
2010-01-28, 01:02:04,VALID,1003.92,VALID,0,VALID,86.5115,VALID,0,VALID,24.7353,VALID,351,VALID,0.953125,
2010-01-28, 01:03:04,VALID,1003.92,VALID,0,VALID,86.5268,VALID,0,VALID,24.6926,VALID,351,VALID,0.652734,
2010-01-28, 01:04:04,VALID,1003.93,VALID,0,VALID,86.5268,VALID,0.100563,VALID,24.714,VALID,346,VALID,0.225,
2010-01-28, 01:05:04,VALID,1003.92,VALID,0,VALID,86.5115,VALID,0.100563,VALID,24.714,VALID,338,VALID,0.00585938,
2010-01-28, 01:06:04,VALID,1003.9,VALID,0,VALID,86.6488,VALID,0.100563,VALID,24.6945,VALID,338,VALID,0.257422,
2010-01-28, 01:07:04,VALID,1003.9,VALID,0,VALID,86.6412,VALID,0,VALID,24.7159,VALID,338,VALID,0.320703,
2010-01-28, 01:08:04,VALID,1003.91,VALID,0,VALID,86.6717,VALID,0,VALID,24.6945,VALID,325,VALID,0.0792969,
2010-01-28, 01:09:04,VALID,1003.91,VALID,0,VALID,86.7556,VALID,0.100563,VALID,24.675,VALID,316,VALID,0.219531,
2010-01-28, 01:10:04,VALID,1003.84,VALID,0,VALID,86.8014,VALID,0.100563,VALID,24.6537,VALID,333,VALID,0.447266,
2010-01-28, 01:11:04,VALID,1003.83,VALID,0,VALID,86.8395,VALID,0,VALID,24.6342,VALID,343,VALID,0.582031,
2010-01-28, 01:12:04,VALID,1003.79,VALID,0,VALID,86.9006,VALID,0,VALID,24.6361,VALID,336,VALID,0.564453,
2010-01-28, 01:13:04,VALID,1003.79,VALID,0,VALID,86.9311,VALID,0,VALID,24.6342,VALID,315,VALID,0.491406,
2010-01-28, 01:14:04,VALID,1003.84,VALID,0,VALID,86.8929,VALID,0,VALID,24.6556,VALID,313,VALID,0.466797,
2010-01-28, 01:15:04,VALID,1003.82,VALID,0,VALID,86.954,VALID,0,VALID,24.6556,VALID,310,VALID,0.276563,
2010-01-28, 01:16:04,VALID,1003.81,VALID,0,VALID,87.0074,VALID,0,VALID,24.6574,VALID,230,VALID,0.369922,
2010-01-28, 01:17:04,VALID,1003.82,VALID,0,VALID,87.0226,VALID,0,VALID,24.6574,VALID,311,VALID,0.610156,
2010-01-28, 01:18:04,VALID,1003.82,VALID,0,VALID,87.0532,VALID,0.100563,VALID,24.6361,VALID,329,VALID,0.48125,
2010-01-28, 01:19:04,VALID,1003.82,VALID,0,VALID,87.1142,VALID,0,VALID,24.6166,VALID,281,VALID,0.252344,
2010-01-28, 01:20:04,VALID,1003.84,VALID,0,VALID,87.1066,VALID,0.100563,VALID,24.6166,VALID,351,VALID,0.653906,
2010-01-28, 01:21:04,VALID,1003.81,VALID,0,VALID,87.1905,VALID,0,VALID,24.5972,VALID,1,VALID,0.737891,
2010-01-28, 01:22:04,VALID,1003.82,VALID,0,VALID,87.2744,VALID,0.100563,VALID,24.5972,VALID,297,VALID,0.423438,
2010-01-28, 01:23:04,VALID,1003.82,VALID,0,VALID,87.2896,VALID,0,VALID,24.5777,VALID,283,VALID,0.569141,
2010-01-28, 01:24:04,VALID,1003.8,VALID,0,VALID,87.3354,VALID,0,VALID,24.5777,VALID,344,VALID,0.6125,
2010-01-28, 01:25:04,VALID,1003.79,VALID,0,VALID,87.3354,VALID,0.100563,VALID,24.5582,VALID,321,VALID,0.334375,
2010-01-28, 01:26:04,VALID,1003.77,VALID,0,VALID,87.3736,VALID,0,VALID,24.5582,VALID,324,VALID,0.277734,
2010-01-28, 01:27:04,VALID,1003.77,VALID,0,VALID,87.4575,VALID,0.100563,VALID,24.5388,VALID,324,VALID,0.187109,
2010-01-28, 01:28:04,VALID,1003.75,VALID,0,VALID,87.5414,VALID,0,VALID,24.5193,VALID,325,VALID,0.276953,
2010-01-28, 01:29:04,VALID,1003.73,VALID,0,VALID,87.6863,VALID,0.100563,VALID,24.5017,VALID,325,VALID,0.0539063,
2010-01-28, 01:30:04,VALID,1003.72,VALID,0,VALID,87.8237,VALID,0,VALID,24.4822,VALID,326,VALID,0.319531,
2010-01-28, 01:31:04,VALID,1003.71,VALID,0,VALID,88.022,VALID,0,VALID,24.422,VALID,355,VALID,0.389062,
2010-01-28, 01:32:04,VALID,1003.72,VALID,0,VALID,88.1365,VALID,0,VALID,24.4006,VALID,354,VALID,0.759375,
2010-01-28, 01:33:04,VALID,1003.67,VALID,0,VALID,88.2051,VALID,0,VALID,24.4414,VALID,2,VALID,0.975391,
2010-01-28, 01:34:04,VALID,1003.67,VALID,0,VALID,88.0907,VALID,0,VALID,24.4609,VALID,356,VALID,0.614062,
2010-01-28, 01:35:04,VALID,1003.63,VALID,0,VALID,88.0373,VALID,0,VALID,24.4998,VALID,339,VALID,0.667188,
2010-01-28, 01:36:04,VALID,1003.66,VALID,0,VALID,87.9534,VALID,0,VALID,24.5388,VALID,352,VALID,1.07539,
2010-01-28, 01:37:04,VALID,1003.64,VALID,0,VALID,87.7703,VALID,0,VALID,24.5582,VALID,327,VALID,1.05508,
2010-01-28, 01:38:04,VALID,1003.6,VALID,0,VALID,87.6482,VALID,0.100563,VALID,24.5972,VALID,26,VALID,0.245312,
2010-01-28, 01:39:04,VALID,1003.63,VALID,0,VALID,87.5414,VALID,0.100563,VALID,24.6361,VALID,359,VALID,0.793359,
2010-01-28, 01:40:04,VALID,1003.62,VALID,0,VALID,87.488,VALID,0,VALID,24.6361,VALID,353,VALID,0.885547,
2010-01-28, 01:41:04,VALID,1003.59,VALID,0,VALID,87.4117,VALID,0.100563,VALID,24.6556,VALID,346,VALID,0.594531,
2010-01-28, 01:42:04,VALID,1003.59,VALID,0,VALID,87.3659,VALID,0,VALID,24.6964,VALID,263,VALID,0.780469,
2010-01-28, 01:43:04,VALID,1003.56,VALID,0,VALID,87.3507,VALID,0,VALID,24.6964,VALID,340,VALID,0.354688,
2010-01-28, 01:44:04,VALID,1003.58,VALID,0,VALID,87.3278,VALID,0,VALID,24.675,VALID,347,VALID,0.209375,
2010-01-28, 01:45:04,VALID,1003.57,VALID,0,VALID,87.3354,VALID,0.100563,VALID,24.6945,VALID,347,VALID,0.05,
2010-01-28, 01:46:04,VALID,1003.58,VALID,0,VALID,87.3659,VALID,0,VALID,24.675,VALID,298,VALID,0.226953,
2010-01-28, 01:47:04,VALID,1003.56,VALID,0,VALID,87.3736,VALID,0,VALID,24.6945,VALID,297,VALID,0.152344,
2010-01-28, 01:48:04,VALID,1003.56,VALID,0,VALID,87.3736,VALID,0.100563,VALID,24.6537,VALID,264,VALID,0.4125,
2010-01-28, 01:49:04,VALID,1003.52,VALID,0,VALID,87.3049,VALID,0.100563,VALID,24.6945,VALID,343,VALID,0.460156,
2010-01-28, 01:50:04,VALID,1003.52,VALID,0,VALID,87.2362,VALID,0.100563,VALID,24.6945,VALID,343,VALID,0.494922,
2010-01-28, 01:51:04,VALID,1003.47,VALID,0,VALID,87.221,VALID,0.100563,VALID,24.7159,VALID,19,VALID,0.800781,
2010-01-28, 01:52:04,VALID,1003.48,VALID,0,VALID,87.2134,VALID,0,VALID,24.6945,VALID,341,VALID,0.524609,
2010-01-28, 01:53:04,VALID,1003.48,VALID,0,VALID,87.2134,VALID,0.100563,VALID,24.675,VALID,348,VALID,0.313672,
2010-01-28, 01:54:04,VALID,1003.42,VALID,0,VALID,87.1828,VALID,0,VALID,24.675,VALID,345,VALID,0.398438,
2010-01-28, 01:55:04,VALID,1003.42,VALID,0,VALID,87.2286,VALID,0.100563,VALID,24.6964,VALID,338,VALID,0.104297,
2010-01-28, 01:56:04,VALID,1003.44,VALID,0,VALID,87.16,VALID,0,VALID,24.675,VALID,351,VALID,0.816797,
2010-01-28, 01:57:04,VALID,1003.42,VALID,0,VALID,87.2057,VALID,0,VALID,24.6945,VALID,314,VALID,0.192578,
2010-01-28, 01:58:04,VALID,1003.42,VALID,0,VALID,87.1371,VALID,0,VALID,24.7159,VALID,302,VALID,0.275,
2010-01-28, 01:59:04,VALID,1003.43,VALID,0,VALID,87.1752,VALID,0,VALID,24.6945,VALID,320,VALID,0.463281,
2010-01-28, 02:00:04,VALID,1003.4,VALID,0,VALID,87.2057,VALID,0.100563,VALID,24.675,VALID,340,VALID,0.171875,
2010-01-28, 02:01:04,VALID,1003.4,VALID,0,VALID,87.1828,VALID,0,VALID,24.6945,VALID,340,VALID,0.199219,
2010-01-28, 02:02:04,VALID,1003.4,VALID,0,VALID,87.2362,VALID,0.100563,VALID,24.675,VALID,340,VALID,0,
2010-01-28, 02:03:04,VALID,1003.4,VALID,0,VALID,87.2515,VALID,0.100563,VALID,24.675,VALID,340,VALID,0.0253906,
2010-01-28, 02:04:04,VALID,1003.38,VALID,0,VALID,87.2668,VALID,0,VALID,24.6361,VALID,340,VALID,0.0820313,
2010-01-28, 02:05:04,VALID,1003.38,VALID,0,VALID,87.4575,VALID,0,VALID,24.6342,VALID,340,VALID,0,
2010-01-28, 02:06:04,VALID,1003.39,VALID,0,VALID,87.6482,VALID,0,VALID,24.6556,VALID,311,VALID,0.487891,
2010-01-28, 02:07:04,VALID,1003.37,VALID,0,VALID,87.7245,VALID,0,VALID,24.6166,VALID,305,VALID,0.112891,
2010-01-28, 02:08:04,VALID,1003.35,VALID,0,VALID,87.8008,VALID,0,VALID,24.6166,VALID,303,VALID,0.21875,
2010-01-28, 02:09:04,VALID,1003.35,VALID,0,VALID,87.7779,VALID,0,VALID,24.5564,VALID,303,VALID,0.378516,
2010-01-28, 02:10:04,VALID,1003.32,VALID,0,VALID,87.7474,VALID,0,VALID,24.5388,VALID,227,VALID,0.366406,
2010-01-28, 02:11:04,VALID,1003.32,VALID,0,VALID,87.8694,VALID,0,VALID,24.498,VALID,227,VALID,0,
2010-01-28, 02:12:04,VALID,1003.3,VALID,0,VALID,87.9381,VALID,0,VALID,24.4998,VALID,227,VALID,0,
2010-01-28, 02:13:04,VALID,1003.32,VALID,0,VALID,88.2356,VALID,0,VALID,24.4804,VALID,227,VALID,0,
2010-01-28, 02:14:04,VALID,1003.33,VALID,0,VALID,88.4721,VALID,0,VALID,24.4628,VALID,227,VALID,0,
2010-01-28, 02:15:04,VALID,1003.32,VALID,0,VALID,88.556,VALID,0,VALID,24.4238,VALID,227,VALID,0,
2010-01-28, 02:16:04,VALID,1003.36,VALID,0,VALID,88.6247,VALID,0,VALID,24.4025,VALID,227,VALID,0,
2010-01-28, 02:17:04,VALID,1003.3,VALID,0,VALID,88.7086,VALID,0.100563,VALID,24.383,VALID,227,VALID,0,
2010-01-28, 02:18:04,VALID,1003.31,VALID,0,VALID,88.6934,VALID,0,VALID,24.3636,VALID,227,VALID,0,
2010-01-28, 02:19:04,VALID,1003.3,VALID,0,VALID,88.7239,VALID,0,VALID,24.3441,VALID,227,VALID,0,
2010-01-28, 02:20:04,VALID,1003.28,VALID,0,VALID,88.7925,VALID,0,VALID,24.3441,VALID,227,VALID,0,
2010-01-28, 02:21:04,VALID,1003.27,VALID,0,VALID,88.8688,VALID,0.100563,VALID,24.3459,VALID,227,VALID,0,
2010-01-28, 02:22:04,VALID,1003.24,VALID,0,VALID,88.8536,VALID,0,VALID,24.3441,VALID,227,VALID,0,
2010-01-28, 02:23:04,VALID,1003.23,VALID,0,VALID,88.8765,VALID,0.100563,VALID,24.3441,VALID,227,VALID,0,
2010-01-28, 02:24:04,VALID,1003.24,VALID,0,VALID,89.113,VALID,0,VALID,24.3441,VALID,227,VALID,0,
2010-01-28, 02:25:04,VALID,1003.26,VALID,0,VALID,89.0977,VALID,0.100563,VALID,24.3441,VALID,318,VALID,0.185156,
2010-01-28, 02:26:04,VALID,1003.24,VALID,0,VALID,89.0977,VALID,0,VALID,24.3441,VALID,335,VALID,0.161719,
2010-01-28, 02:27:04,VALID,1003.2,VALID,0,VALID,89.1664,VALID,0,VALID,24.3441,VALID,335,VALID,0.127344,
2010-01-28, 02:28:04,VALID,1003.22,VALID,0,VALID,89.2121,VALID,0,VALID,24.3441,VALID,335,VALID,0,
2010-01-28, 02:29:04,VALID,1003.26,VALID,0,VALID,89.2426,VALID,0.100563,VALID,24.3246,VALID,335,VALID,0.0148437,
2010-01-28, 02:30:04,VALID,1003.23,VALID,0,VALID,89.3723,VALID,0,VALID,24.3052,VALID,335,VALID,0.380078,
2010-01-28, 02:31:04,VALID,1003.23,VALID,0,VALID,89.4181,VALID,0,VALID,24.3052,VALID,335,VALID,0,
2010-01-28, 02:32:04,VALID,1003.2,VALID,0,VALID,89.3876,VALID,0,VALID,24.3052,VALID,335,VALID,0,
2010-01-28, 02:33:04,VALID,1003.18,VALID,0,VALID,89.3723,VALID,0,VALID,24.3246,VALID,335,VALID,0.312891,
2010-01-28, 02:34:04,VALID,1003.2,VALID,0,VALID,89.3571,VALID,0,VALID,24.3441,VALID,335,VALID,0.308203,
2010-01-28, 02:35:04,VALID,1003.19,VALID,0,VALID,89.3113,VALID,0,VALID,24.3636,VALID,323,VALID,0.234766,
2010-01-28, 02:36:04,VALID,1003.21,VALID,0,VALID,89.2503,VALID,0.100563,VALID,24.3422,VALID,322,VALID,0,
2010-01-28, 02:37:04,VALID,1003.23,VALID,0,VALID,89.2579,VALID,0.100563,VALID,24.383,VALID,326,VALID,0.354297,
2010-01-28, 02:38:04,VALID,1003.23,VALID,0,VALID,89.2045,VALID,0,VALID,24.4025,VALID,332,VALID,0.101563,
2010-01-28, 02:39:04,VALID,1003.23,VALID,0,VALID,89.1358,VALID,0,VALID,24.4006,VALID,332,VALID,0,
2010-01-28, 02:40:04,VALID,1003.27,VALID,0,VALID,89.0595,VALID,0,VALID,24.4414,VALID,332,VALID,0,
2010-01-28, 02:41:04,VALID,1003.29,VALID,0,VALID,89.0443,VALID,0.100563,VALID,24.4396,VALID,332,VALID,0,
2010-01-28, 02:42:05,VALID,1003.28,VALID,0,VALID,89.0138,VALID,0.100563,VALID,24.4609,VALID,332,VALID,0,
2010-01-28, 02:43:05,VALID,1003.26,VALID,0,VALID,88.9299,VALID,0,VALID,24.4609,VALID,332,VALID,0.346875,
2010-01-28, 02:44:05,VALID,1003.24,VALID,0,VALID,88.8002,VALID,0,VALID,24.4804,VALID,249,VALID,0.324219,
2010-01-28, 02:45:05,VALID,1003.22,VALID,0,VALID,88.64,VALID,0,VALID,24.4998,VALID,250,VALID,0.122656,
2010-01-28, 02:46:05,VALID,1003.23,VALID,0,VALID,88.5179,VALID,0,VALID,24.5193,VALID,274,VALID,0.426562,
2010-01-28, 02:47:05,VALID,1003.21,VALID,0,VALID,88.289,VALID,0,VALID,24.5388,VALID,287,VALID,0.201953,
2010-01-28, 02:48:05,VALID,1003.2,VALID,0,VALID,88.1746,VALID,0,VALID,24.5582,VALID,287,VALID,0.0078125,
2010-01-28, 02:49:05,VALID,1003.22,VALID,0,VALID,88.1365,VALID,0.100563,VALID,24.5972,VALID,287,VALID,0.00898437,
2010-01-28, 02:50:05,VALID,1003.23,VALID,0,VALID,88.0525,VALID,0,VALID,24.5972,VALID,294,VALID,0.213281,
2010-01-28, 02:51:05,VALID,1003.25,VALID,0,VALID,88.0296,VALID,0.100563,VALID,24.6166,VALID,294,VALID,0.339063,
2010-01-28, 02:52:05,VALID,1003.24,VALID,0,VALID,88.0373,VALID,0,VALID,24.5972,VALID,294,VALID,0.296875,
2010-01-28, 02:53:05,VALID,1003.23,VALID,0,VALID,88.022,VALID,0.100563,VALID,24.5777,VALID,294,VALID,0.438281,
2010-01-28, 02:54:05,VALID,1003.23,VALID,0,VALID,88.0831,VALID,0,VALID,24.5369,VALID,325,VALID,0.391406,
2010-01-28, 02:55:05,VALID,1003.21,VALID,0,VALID,88.2051,VALID,0,VALID,24.5796,VALID,335,VALID,0.382813,
2010-01-28, 02:56:05,VALID,1003.2,VALID,0,VALID,88.1899,VALID,0,VALID,24.5193,VALID,347,VALID,0.393359,
2010-01-28, 02:57:05,VALID,1003.18,VALID,0,VALID,88.228,VALID,0,VALID,24.5174,VALID,347,VALID,0.307031,
2010-01-28, 02:58:05,VALID,1003.15,VALID,0,VALID,88.3195,VALID,0,VALID,24.498,VALID,347,VALID,0.0679687,
2010-01-28, 02:59:05,VALID,1003.17,VALID,0,VALID,88.4264,VALID,0,VALID,24.4804,VALID,338,VALID,0.00234375,
2010-01-28, 03:00:05,VALID,1003.15,VALID,0,VALID,88.5332,VALID,0,VALID,24.4998,VALID,338,VALID,0,
2010-01-28, 03:01:05,VALID,1003.14,VALID,0,VALID,88.5255,VALID,0,VALID,24.4998,VALID,298,VALID,0.454688,
2010-01-28, 03:02:05,VALID,1003.14,VALID,0,VALID,88.5408,VALID,0,VALID,24.4998,VALID,297,VALID,0.484375,
2010-01-28, 03:03:05,VALID,1003.16,VALID,0,VALID,88.4569,VALID,0,VALID,24.5601,VALID,295,VALID,0.592578,
2010-01-28, 03:04:05,VALID,1003.12,VALID,0,VALID,88.4187,VALID,0,VALID,24.5601,VALID,295,VALID,0.184375,
2010-01-28, 03:05:05,VALID,1003.13,VALID,0,VALID,88.4187,VALID,0,VALID,24.5796,VALID,295,VALID,0.324219,
2010-01-28, 03:06:05,VALID,1003.13,VALID,0,VALID,88.2967,VALID,0,VALID,24.5582,VALID,294,VALID,0.225,
2010-01-28, 03:07:05,VALID,1003.15,VALID,0,VALID,88.3195,VALID,0,VALID,24.5777,VALID,294,VALID,0.096875,
2010-01-28, 03:08:05,VALID,1003.14,VALID,0,VALID,88.2127,VALID,0,VALID,24.5777,VALID,294,VALID,0.148047,
2010-01-28, 03:09:05,VALID,1003.11,VALID,0,VALID,88.1822,VALID,0,VALID,24.6185,VALID,294,VALID,0.06875,
2010-01-28, 03:10:05,VALID,1003.13,VALID,0,VALID,88.2051,VALID,0,VALID,24.5972,VALID,294,VALID,0.2125,
2010-01-28, 03:11:05,VALID,1003.16,VALID,0,VALID,88.228,VALID,0,VALID,24.5777,VALID,294,VALID,0.0628906,
2010-01-28, 03:12:05,VALID,1003.18,VALID,0,VALID,88.2204,VALID,0,VALID,24.5796,VALID,292,VALID,0.0175781,
2010-01-28, 03:13:05,VALID,1003.19,VALID,0,VALID,88.2204,VALID,0,VALID,24.5582,VALID,291,VALID,0.608594,
2010-01-28, 03:14:05,VALID,1003.19,VALID,0,VALID,88.1593,VALID,0,VALID,24.5601,VALID,291,VALID,0,
2010-01-28, 03:15:05,VALID,1003.17,VALID,0,VALID,88.1593,VALID,0,VALID,24.5388,VALID,289,VALID,0.50625,
2010-01-28, 03:16:05,VALID,1003.18,VALID,0,VALID,88.1899,VALID,0,VALID,24.4998,VALID,278,VALID,0.245312,
2010-01-28, 03:17:05,VALID,1003.17,VALID,0,VALID,88.2127,VALID,0,VALID,24.5193,VALID,278,VALID,0.489062,
2010-01-28, 03:18:05,VALID,1003.18,VALID,0,VALID,88.1975,VALID,0,VALID,24.5193,VALID,278,VALID,0.065625,
2010-01-28, 03:19:05,VALID,1003.15,VALID,0,VALID,88.2127,VALID,0,VALID,24.5017,VALID,278,VALID,0.0175781,
2010-01-28, 03:20:05,VALID,1003.16,VALID,0,VALID,88.2051,VALID,0,VALID,24.459,VALID,278,VALID,0.0886719,
2010-01-28, 03:21:05,VALID,1003.16,VALID,0,VALID,88.3501,VALID,0,VALID,24.4433,VALID,278,VALID,0.0304688,
2010-01-28, 03:22:05,VALID,1003.13,VALID,0,VALID,88.4721,VALID,0,VALID,24.383,VALID,278,VALID,0.0234375,
2010-01-28, 03:23:05,VALID,1003.16,VALID,0,VALID,88.6628,VALID,0,VALID,24.3441,VALID,277,VALID,0.203516,
2010-01-28, 03:24:05,VALID,1003.17,VALID,0,VALID,88.7086,VALID,0,VALID,24.3246,VALID,278,VALID,0,
2010-01-28, 03:25:05,VALID,1003.2,VALID,0,VALID,88.9375,VALID,0,VALID,24.2662,VALID,278,VALID,0.213281,
2010-01-28, 03:26:05,VALID,1003.21,VALID,0,VALID,89.0977,VALID,0,VALID,24.2681,VALID,278,VALID,0.134375,
2010-01-28, 03:27:05,VALID,1003.23,VALID,0,VALID,89.3723,VALID,0,VALID,24.2273,VALID,278,VALID,0.01875,
2010-01-28, 03:28:05,VALID,1003.21,VALID,0,VALID,89.4563,VALID,0,VALID,24.1884,VALID,278,VALID,0.00078125,
2010-01-28, 03:29:05,VALID,1003.26,VALID,0,VALID,89.6546,VALID,0,VALID,24.1884,VALID,278,VALID,0.0722656,
2010-01-28, 03:30:05,VALID,1003.25,VALID,0,VALID,89.7309,VALID,0,VALID,24.1902,VALID,278,VALID,0,
2010-01-28, 03:31:05,VALID,1003.25,VALID,0,VALID,89.7996,VALID,0,VALID,24.1494,VALID,278,VALID,0.161719,
2010-01-28, 03:32:05,VALID,1003.26,VALID,0,VALID,89.9292,VALID,0,VALID,24.1494,VALID,278,VALID,0.339063,
2010-01-28, 03:33:05,VALID,1003.25,VALID,0,VALID,89.9903,VALID,0,VALID,24.13,VALID,280,VALID,0.349219,
2010-01-28, 03:34:05,VALID,1003.25,VALID,0,VALID,90.0513,VALID,0,VALID,24.1513,VALID,290,VALID,0.0890625,
2010-01-28, 03:35:05,VALID,1003.25,VALID,0,VALID,90.0589,VALID,0,VALID,24.13,VALID,291,VALID,0.234766,
2010-01-28, 03:36:05,VALID,1003.24,VALID,0,VALID,90.0513,VALID,0,VALID,24.1513,VALID,291,VALID,0.00703125,
2010-01-28, 03:37:05,VALID,1003.19,VALID,0,VALID,90.0132,VALID,0,VALID,24.13,VALID,300,VALID,0.295703,
2010-01-28, 03:38:05,VALID,1003.22,VALID,0,VALID,89.9598,VALID,0,VALID,24.13,VALID,300,VALID,0.167969,
2010-01-28, 03:39:05,VALID,1003.2,VALID,0,VALID,89.8682,VALID,0,VALID,24.13,VALID,300,VALID,0.246484,
2010-01-28, 03:40:05,VALID,1003.17,VALID,0,VALID,89.7461,VALID,0,VALID,24.13,VALID,300,VALID,0.423047,
2010-01-28, 03:41:05,VALID,1003.19,VALID,0,VALID,89.8148,VALID,0,VALID,24.1105,VALID,331,VALID,0.573047,
2010-01-28, 03:42:05,VALID,1003.18,VALID,0,VALID,89.8072,VALID,0,VALID,24.13,VALID,333,VALID,0.201172,
2010-01-28, 03:43:05,VALID,1003.24,VALID,0,VALID,89.7996,VALID,0,VALID,24.1494,VALID,345,VALID,0.462109,
2010-01-28, 03:44:05,VALID,1003.24,VALID,0,VALID,89.6393,VALID,0,VALID,24.1884,VALID,334,VALID,0.715234,